Time,TemperatureF,DewpointF,PressureIn,WindDirection,WindDirectionDegrees,WindSpeedMPH,WindSpeedGustMPH,Humidity,HourlyPrecipIn,Conditions,Clouds,dailyrainin,SolarRadiationWatts/m^2,SoftwareType,DateUTC
2013-03-14 00:02:00,46.0,45.0,-100.00,SW,228,2.0,5.0,98,0.00,,,0.00,0.000000,,2013-03-14 07:02:00,
2013-03-14 00:11:00,46.0,45.0,-100.00,SW,228,2.0,5.0,98,0.00,,,0.00,0.000000,,2013-03-14 07:11:00,
2013-03-14 00:32:00,44.0,43.0,-100.00,WNW,301,4.0,6.0,96,0.00,,,0.00,0.000000,,2013-03-14 07:32:00,
2013-03-14 00:43:00,44.0,43.0,-100.00,WNW,301,4.0,6.0,96,0.00,,,0.00,0.000000,,2013-03-14 07:43:00,
2013-03-14 00:52:00,44.0,43.0,-100.00,WNW,301,4.0,6.0,96,0.00,,,0.00,0.000000,,2013-03-14 07:52:00,
2013-03-14 01:02:00,44.0,43.0,-100.00,WNW,301,4.0,6.0,96,0.00,,,0.00,0.000000,,2013-03-14 08:02:00,
2013-03-14 01:11:00,44.0,43.0,-100.00,WNW,301,4.0,6.0,96,0.00,,,0.00,0.000000,,2013-03-14 08:11:00,
2013-03-14 01:42:00,42.0,41.0,-100.00,SE,139,3.0,5.0,98,0.00,,,0.00,0.000000,,2013-03-14 08:42:00,
2013-03-14 01:52:00,42.0,41.0,-100.00,SE,139,3.0,5.0,98,0.00,,,0.00,0.000000,,2013-03-14 08:52:00,
2013-03-14 02:01:00,42.0,41.0,-100.00,SE,139,3.0,5.0,98,0.00,,,0.00,0.000000,,2013-03-14 09:01:00,
2013-03-14 02:12:00,42.0,41.0,-100.00,SE,139,3.0,5.0,98,0.00,,,0.00,0.000000,,2013-03-14 09:12:00,
2013-03-14 02:32:00,41.0,40.0,-100.00,South,173,4.0,5.0,98,0.00,,,0.00,0.000000,,2013-03-14 09:32:00,
2013-03-14 02:42:00,41.0,40.0,-100.00,South,173,4.0,5.0,98,0.00,,,0.00,0.000000,,2013-03-14 09:42:00,
2013-03-14 02:52:00,41.0,40.0,-100.00,South,173,4.0,5.0,98,0.00,,,0.00,0.000000,,2013-03-14 09:52:00,
2013-03-14 03:02:00,41.0,40.0,-100.00,South,173,4.0,5.0,98,0.00,,,0.00,0.000000,,2013-03-14 10:02:00,
2013-03-14 03:12:00,41.0,40.0,-100.00,South,173,4.0,5.0,98,0.00,,,0.00,0.000000,,2013-03-14 10:12:00,
2013-03-14 03:32:00,43.0,42.0,-100.00,WNW,290,2.0,5.0,98,0.00,,,0.00,0.000000,,2013-03-14 10:32:00,
2013-03-14 03:42:00,43.0,42.0,-100.00,WNW,290,2.0,5.0,98,0.00,,,0.00,0.000000,,2013-03-14 10:42:00,
2013-03-14 03:52:00,43.0,42.0,-100.00,WNW,290,2.0,5.0,98,0.00,,,0.00,0.000000,,2013-03-14 10:52:00,
2013-03-14 04:02:00,43.0,42.0,-100.00,WNW,290,2.0,5.0,98,0.00,,,0.00,0.000000,,2013-03-14 11:02:00,
2013-03-14 04:12:00,43.0,42.0,-100.00,WNW,290,2.0,5.0,98,0.00,,,0.00,0.000000,,2013-03-14 11:12:00,
2013-03-14 04:33:00,40.0,39.0,-100.00,SSE,154,5.0,6.0,98,0.00,,,0.00,0.000000,,2013-03-14 11:33:00,
2013-03-14 04:42:00,40.0,39.0,-100.00,SSE,154,5.0,6.0,98,0.00,,,0.00,0.000000,,2013-03-14 11:42:00,
2013-03-14 04:52:00,40.0,39.0,-100.00,SSE,154,5.0,6.0,98,0.00,,,0.00,0.000000,,2013-03-14 11:52:00,
2013-03-14 05:01:00,40.0,39.0,-100.00,SSE,154,5.0,6.0,98,0.00,,,0.00,0.000000,,2013-03-14 12:01:00,
2013-03-14 05:11:00,40.0,39.0,-100.00,SSE,154,5.0,6.0,98,0.00,,,0.00,0.000000,,2013-03-14 12:11:00,
2013-03-14 05:33:00,39.0,39.0,-100.00,WNW,291,7.0,8.0,99,0.00,,,0.00,0.000000,,2013-03-14 12:33:00,
2013-03-14 05:42:00,39.0,39.0,-100.00,WNW,291,7.0,8.0,99,0.00,,,0.00,0.000000,,2013-03-14 12:42:00,
2013-03-14 05:52:00,39.0,39.0,-100.00,WNW,291,7.0,8.0,99,0.00,,,0.00,0.000000,,2013-03-14 12:52:00,
2013-03-14 06:02:00,39.0,39.0,-100.00,WNW,291,7.0,8.0,99,0.00,,,0.00,0.000000,,2013-03-14 13:02:00,
2013-03-14 06:12:00,39.0,39.0,-100.00,WNW,291,7.0,8.0,99,0.00,,,0.00,0.000000,,2013-03-14 13:12:00,
2013-03-14 06:32:00,40.0,40.0,-100.00,SE,133,5.0,7.0,99,0.00,,,0.00,0.000000,,2013-03-14 13:32:00,
2013-03-14 06:43:00,40.0,40.0,-100.00,SE,133,5.0,7.0,99,0.00,,,0.00,0.000000,,2013-03-14 13:43:00,
2013-03-14 06:52:00,40.0,40.0,-100.00,SE,133,5.0,7.0,99,0.00,,,0.00,0.000000,,2013-03-14 13:52:00,
2013-03-14 07:02:00,40.0,40.0,-100.00,SE,133,5.0,7.0,99,0.00,,,0.00,0.000000,,2013-03-14 14:02:00,
2013-03-14 07:12:00,40.0,40.0,-100.00,SE,133,5.0,7.0,99,0.00,,,0.00,0.000000,,2013-03-14 14:12:00,
2013-03-14 07:42:00,40.0,40.0,-100.00,SSE,148,4.0,7.0,99,0.00,,,0.00,0.000000,,2013-03-14 14:42:00,
2013-03-14 07:53:00,40.0,40.0,-100.00,SSE,148,4.0,7.0,99,0.00,,,0.00,0.000000,,2013-03-14 14:53:00,
2013-03-14 08:02:00,40.0,40.0,-100.00,SSE,148,4.0,7.0,99,0.00,,,0.00,0.000000,,2013-03-14 15:02:00,
2013-03-14 08:12:00,40.0,40.0,-100.00,SSE,148,4.0,7.0,99,0.00,,,0.00,0.000000,,2013-03-14 15:12:00,
2013-03-14 08:33:00,40.0,40.0,-100.00,SE,143,9.0,12.0,99,0.00,,,0.00,11.000000,,2013-03-14 15:33:00,
2013-03-14 08:43:00,40.0,40.0,-100.00,SE,143,9.0,12.0,99,0.00,,,0.00,11.000000,,2013-03-14 15:43:00,
2013-03-14 08:52:00,40.0,40.0,-100.00,SE,143,9.0,12.0,99,0.00,,,0.00,11.000000,,2013-03-14 15:52:00,
2013-03-14 09:02:00,40.0,40.0,-100.00,SE,143,9.0,12.0,99,0.00,,,0.00,11.000000,,2013-03-14 16:02:00,
2013-03-14 09:12:00,40.0,40.0,-100.00,SE,143,9.0,12.0,99,0.00,,,0.00,11.000000,,2013-03-14 16:12:00,
2013-03-14 09:33:00,41.0,41.0,-100.00,ESE,117,5.0,10.0,99,0.00,,,0.00,73.000000,,2013-03-14 16:33:00,
2013-03-14 09:42:00,41.0,41.0,-100.00,ESE,117,5.0,10.0,99,0.00,,,0.00,73.000000,,2013-03-14 16:42:00,
2013-03-14 09:52:00,41.0,41.0,-100.00,ESE,117,5.0,10.0,99,0.00,,,0.00,73.000000,,2013-03-14 16:52:00,
2013-03-14 10:02:00,41.0,41.0,-100.00,ESE,117,5.0,10.0,99,0.00,,,0.00,73.000000,,2013-03-14 17:02:00,
2013-03-14 10:12:00,41.0,41.0,-100.00,ESE,117,5.0,10.0,99,0.00,,,0.00,73.000000,,2013-03-14 17:12:00,
2013-03-14 10:33:00,43.0,42.0,-100.00,NW,309,6.0,7.0,98,0.00,,,0.00,193.000000,,2013-03-14 17:33:00,
2013-03-14 10:42:00,43.0,42.0,-100.00,NW,309,6.0,7.0,98,0.00,,,0.00,193.000000,,2013-03-14 17:42:00,
2013-03-14 10:52:00,43.0,42.0,-100.00,NW,309,6.0,7.0,98,0.00,,,0.00,193.000000,,2013-03-14 17:52:00,
2013-03-14 11:02:00,43.0,42.0,-100.00,NW,309,6.0,7.0,98,0.00,,,0.00,193.000000,,2013-03-14 18:02:00,
2013-03-14 11:12:00,43.0,42.0,-100.00,NW,309,6.0,7.0,98,0.00,,,0.00,193.000000,,2013-03-14 18:12:00,
2013-03-14 11:33:00,46.0,45.0,-100.00,NW,324,5.0,9.0,97,0.00,,,0.00,308.000000,,2013-03-14 18:33:00,
2013-03-14 11:43:00,46.0,45.0,-100.00,NW,324,5.0,9.0,97,0.00,,,0.00,308.000000,,2013-03-14 18:43:00,
2013-03-14 11:52:00,46.0,45.0,-100.00,NW,324,5.0,9.0,97,0.00,,,0.00,308.000000,,2013-03-14 18:52:00,
2013-03-14 12:02:00,46.0,45.0,-100.00,NW,324,5.0,9.0,97,0.00,,,0.00,308.000000,,2013-03-14 19:02:00,
2013-03-14 12:12:00,46.0,45.0,-100.00,NW,324,5.0,9.0,97,0.00,,,0.00,308.000000,,2013-03-14 19:12:00,
2013-03-14 13:42:00,51.0,43.0,-100.00,WNW,292,6.0,22.0,74,-99.99,,,0.00,422.000000,,2013-03-14 20:42:00,
2013-03-14 13:52:00,51.0,43.0,-100.00,WNW,292,6.0,22.0,74,-99.99,,,0.00,422.000000,,2013-03-14 20:52:00,
2013-03-14 14:02:00,51.0,43.0,-100.00,WNW,292,6.0,22.0,74,-99.99,,,0.00,422.000000,,2013-03-14 21:02:00,
2013-03-14 14:12:00,51.0,43.0,-100.00,WNW,292,6.0,22.0,74,-99.99,,,0.00,422.000000,,2013-03-14 21:12:00,
2013-03-14 14:43:00,54.0,43.0,-100.00,WSW,246,12.0,21.0,67,0.00,,,0.00,453.000000,,2013-03-14 21:43:00,
2013-03-14 14:53:00,54.0,43.0,-100.00,WSW,246,12.0,21.0,67,0.00,,,0.00,453.000000,,2013-03-14 21:53:00,
2013-03-14 15:03:00,54.0,43.0,-100.00,WSW,246,12.0,21.0,67,0.00,,,0.00,453.000000,,2013-03-14 22:03:00,
2013-03-14 15:12:00,54.0,43.0,-100.00,WSW,246,12.0,21.0,67,0.00,,,0.00,453.000000,,2013-03-14 22:12:00,
2013-03-14 15:42:00,56.0,40.0,-100.00,SSE,160,13.0,20.0,55,0.00,,,0.00,602.000000,,2013-03-14 22:42:00,
2013-03-14 15:52:00,56.0,40.0,-100.00,SSE,160,13.0,20.0,55,0.00,,,0.00,602.000000,,2013-03-14 22:52:00,
2013-03-14 16:02:00,56.0,40.0,-100.00,SSE,160,13.0,20.0,55,0.00,,,0.00,602.000000,,2013-03-14 23:02:00,
2013-03-14 16:11:00,56.0,40.0,-100.00,SSE,160,13.0,20.0,55,0.00,,,0.00,602.000000,,2013-03-14 23:11:00,
2013-03-14 16:33:00,58.0,40.0,-100.00,SW,232,11.0,22.0,51,0.00,,,0.00,467.000000,,2013-03-14 23:33:00,
2013-03-14 16:43:00,58.0,40.0,-100.00,SW,232,11.0,22.0,51,0.00,,,0.00,467.000000,,2013-03-14 23:43:00,
2013-03-14 16:53:00,58.0,40.0,-100.00,SW,232,11.0,22.0,51,0.00,,,0.00,467.000000,,2013-03-14 23:53:00,
2013-03-14 17:02:00,58.0,40.0,-100.00,SW,232,11.0,22.0,51,0.00,,,0.00,467.000000,,2013-03-15 00:02:00,
2013-03-14 17:12:00,58.0,40.0,-100.00,SW,232,11.0,22.0,51,0.00,,,0.00,467.000000,,2013-03-15 00:12:00,
2013-03-14 17:32:00,54.0,42.0,-100.00,West,262,14.0,21.0,64,0.00,,,0.00,272.000000,,2013-03-15 00:32:00,
2013-03-14 17:42:00,54.0,42.0,-100.00,West,262,14.0,21.0,64,0.00,,,0.00,272.000000,,2013-03-15 00:42:00,
2013-03-14 17:52:00,54.0,42.0,-100.00,West,262,14.0,21.0,64,0.00,,,0.00,272.000000,,2013-03-15 00:52:00,
2013-03-14 18:02:00,54.0,42.0,-100.00,West,262,14.0,21.0,64,0.00,,,0.00,272.000000,,2013-03-15 01:02:00,
2013-03-14 18:11:00,54.0,42.0,-100.00,West,262,14.0,21.0,64,0.00,,,0.00,272.000000,,2013-03-15 01:11:00,
2013-03-14 18:32:00,53.0,43.0,-100.00,SW,229,10.0,21.0,70,0.00,,,-99.99,144.000000,,2013-03-15 01:32:00,
2013-03-14 18:42:00,53.0,43.0,-100.00,SW,229,10.0,21.0,70,0.00,,,-99.99,144.000000,,2013-03-15 01:42:00,
2013-03-14 18:52:00,53.0,43.0,-100.00,SW,229,10.0,21.0,70,0.00,,,-99.99,144.000000,,2013-03-15 01:52:00,
2013-03-14 19:02:00,53.0,43.0,-100.00,SW,229,10.0,21.0,70,0.00,,,-99.99,144.000000,,2013-03-15 02:02:00,
2013-03-14 19:11:00,53.0,43.0,-100.00,SW,229,10.0,21.0,70,0.00,,,-99.99,144.000000,,2013-03-15 02:11:00,
2013-03-14 19:32:00,53.0,43.0,-100.00,SE,143,6.0,16.0,69,0.00,,,0.00,44.000000,,2013-03-15 02:32:00,
2013-03-14 19:42:00,53.0,43.0,-100.00,SE,143,6.0,16.0,69,0.00,,,0.00,44.000000,,2013-03-15 02:42:00,
2013-03-14 19:52:00,53.0,43.0,-100.00,SE,143,6.0,16.0,69,0.00,,,0.00,44.000000,,2013-03-15 02:52:00,
2013-03-14 20:02:00,53.0,43.0,-100.00,SE,143,6.0,16.0,69,0.00,,,0.00,44.000000,,2013-03-15 03:02:00,
2013-03-14 20:11:00,53.0,43.0,-100.00,SE,143,6.0,16.0,69,0.00,,,0.00,44.000000,,2013-03-15 03:11:00,
2013-03-14 20:33:00,52.0,43.0,-100.00,SSE,160,8.0,13.0,72,0.00,,,0.00,2.000000,,2013-03-15 03:33:00,
2013-03-14 20:43:00,52.0,43.0,-100.00,SSE,160,8.0,13.0,72,0.00,,,0.00,2.000000,,2013-03-15 03:43:00,
2013-03-14 20:53:00,52.0,43.0,-100.00,SSE,160,8.0,13.0,72,0.00,,,0.00,2.000000,,2013-03-15 03:53:00,
2013-03-14 21:03:00,52.0,43.0,-100.00,SSE,160,8.0,13.0,72,0.00,,,0.00,2.000000,,2013-03-15 04:03:00,
2013-03-14 21:12:00,52.0,43.0,-100.00,SSE,160,8.0,13.0,72,0.00,,,0.00,2.000000,,2013-03-15 04:12:00,
2013-03-14 21:33:00,51.0,44.0,-100.00,SSE,153,6.0,14.0,76,0.00,,,0.00,0.000000,,2013-03-15 04:33:00,
2013-03-14 21:43:00,51.0,44.0,-100.00,SSE,153,6.0,14.0,76,0.00,,,0.00,0.000000,,2013-03-15 04:43:00,
2013-03-14 21:53:00,51.0,44.0,-100.00,SSE,153,6.0,14.0,76,0.00,,,0.00,0.000000,,2013-03-15 04:53:00,
2013-03-14 22:02:00,51.0,44.0,-100.00,SSE,153,6.0,14.0,76,0.00,,,0.00,0.000000,,2013-03-15 05:02:00,
2013-03-14 22:12:00,51.0,44.0,-100.00,SSE,153,6.0,14.0,76,0.00,,,0.00,0.000000,,2013-03-15 05:12:00,
2013-03-14 22:32:00,49.0,43.0,-100.00,SE,128,4.0,10.0,81,0.00,,,0.00,0.000000,,2013-03-15 05:32:00,
2013-03-14 22:42:00,49.0,43.0,-100.00,SE,128,4.0,10.0,81,0.00,,,0.00,0.000000,,2013-03-15 05:42:00,
2013-03-14 22:52:00,49.0,43.0,-100.00,SE,128,4.0,10.0,81,0.00,,,0.00,0.000000,,2013-03-15 05:52:00,
2013-03-14 23:02:00,49.0,43.0,-100.00,SE,128,4.0,10.0,81,0.00,,,0.00,0.000000,,2013-03-15 06:02:00,
2013-03-14 23:12:00,49.0,43.0,-100.00,SE,128,4.0,10.0,81,0.00,,,0.00,0.000000,,2013-03-15 06:12:00,
2013-03-14 23:32:00,51.0,45.0,-100.00,SE,138,5.0,8.0,80,0.00,,,0.00,0.000000,,2013-03-15 06:32:00,
2013-03-14 23:42:00,51.0,45.0,-100.00,SE,138,5.0,8.0,80,0.00,,,0.00,0.000000,,2013-03-15 06:42:00,
2013-03-14 23:53:00,51.0,45.0,-100.00,SE,138,5.0,8.0,80,0.00,,,0.00,0.000000,,2013-03-15 06:53:00,